Volver al catálogo

BREEZE-M DEB

ActivoHEO
NORAD 38643·DEBRIS·🇷🇺 Russia

Lanzado Mar 14, 2008 desde Baikonur Cosmodrome

Loading…

Próximos Pases (próximas 24 horas)

TLE

ActualizadoSource: Space-Track

Época: Sep 13, 2026, 05:24 UTC

1 38643U 08011CS  26256.22550587  .00003929  00000-0  16324-1 0  9999
2 38643  49.8793 216.3714 6285736 292.1644 279.0216  3.42513367 34429

Sigue BREEZE-M DEB en tiempo real con AllMySat

Download on the App Store